Location: San Vito
(41.8833°N, 12.9833°E)
Time: 14:48:11
(UTC+00:00)

CZ-4B R/B - Visible Passes

Search period start: 18 February 2020 00:00
Search period end: 28 February 2020 00:00
Orbit: 497 x 647 km, 97.8° (Epoch: 18 February)

Date Brightness Start Highest point End Pass type
(mag) Time Alt. Az. Time Alt. Az. Time Alt. Az.
18 Feb 6.7 02:45:18 10° NE 02:48:10 17° E 02:48:10 17° E visible
18 Feb 4.3 04:19:23 10° N 04:23:29 44° WNW 04:24:21 39° WSW visible
19 Feb 6.6 02:47:38 10° NE 02:50:41 18° E 02:50:59 18° E visible
19 Feb 4.4 04:21:51 10° N 04:25:57 42° WNW 04:27:11 34° WSW visible
20 Feb 6.5 02:49:58 10° NE 02:53:10 19° E 02:53:48 19° ESE visible
20 Feb 4.5 04:24:21 10° N 04:28:25 39° WNW 04:29:59 29° WSW visible
21 Feb 6.4 02:52:20 10° NE 02:55:40 21° E 02:56:37 19° ESE visible
21 Feb 4.6 04:26:50 10° N 04:30:52 37° WNW 04:32:48 25° WSW visible
22 Feb 6.4 02:54:42 10° NE 02:58:08 22° E 02:59:26 19° ESE visible
22 Feb 4.7 04:29:19 10° N 04:33:20 35° WNW 04:35:37 21° WSW visible
23 Feb 6.3 02:57:04 10° NE 03:00:37 23° E 03:02:14 19° SE visible
23 Feb 4.8 04:31:49 10° N 04:35:47 34° WNW 04:38:25 18° WSW visible
24 Feb 6.2 02:59:27 10° NE 03:03:07 25° E 03:05:01 19° SE visible
24 Feb 4.8 04:34:18 10° N 04:38:14 32° WNW 04:41:12 16° SW visible
25 Feb 6.1 03:01:51 10° NE 03:05:36 26° E 03:07:48 18° SE visible
25 Feb 4.9 04:36:48 10° N 04:40:41 30° WNW 04:44:00 13° SW visible
26 Feb 6.0 03:04:13 10° NE 03:08:05 28° E 03:10:35 17° SE visible
26 Feb 5.0 04:39:18 10° N 04:43:08 29° WNW 04:46:46 11° SW visible
27 Feb 5.9 03:06:38 10° NE 03:10:33 29° E 03:13:21 16° SSE visible
27 Feb 5.1 04:41:49 10° N 04:45:35 27° WNW 04:49:21 10° SW visible
